When you browse on this site, cookies collect data to enhance your experience and personalize the content and advertising you see.
Visit our Privacy Policy to learn more. By continuing to use the site, you agree to this use of cookies and data.
  • In United Kingdom
  • List of Countries
  • For 7 days
  • Water Temperature
  • Satellite Maps
  • Weather Map
  • Weather Widgets
  • user-avatar
    Login

    Hourly Weather Ashtarak

    Today, 17 December, Monday

    Time Temperature Precipitation Wind Pressure Humidity
    00:00 +2°C° 0 mm 2 mps 660 mmHg 66%
    01:00 +2°C° 0 mm 2 mps 660 mmHg 66%
    02:00 +2°C° 0 mm 2 mps 660 mmHg 65%
    03:00 +2°C° 0 mm 1 mps 660 mmHg 65%
    04:00 +2°C° 0 mm 1 mps 659 mmHg 65%
    05:00 +2°C° 0 mm 1 mps 659 mmHg 64%
    06:00 +2°C° 0 mm 1 mps 659 mmHg 64%
    07:00 +3°C° 0 mm 1 mps 659 mmHg 63%
    08:00 +3°C° 0 mm 1 mps 659 mmHg 62%
    09:00 +4°C° 0 mm 1 mps 659 mmHg 61%
    10:00 +4°C° 0 mm 2 mps 659 mmHg 61%
    11:00 +5°C° 0 mm 2 mps 658 mmHg 60%
    12:00 +6°C° 0 mm 2 mps 658 mmHg 60%
    13:00 +5°C° 0.1 mm 2 mps 658 mmHg 62%
    14:00 +5°C° 0.1 mm 2 mps 657 mmHg 64%
    15:00 +6°C° 0.1 mm 1 mps 657 mmHg 66%
    16:00 +5°C° 0.2 mm 1 mps 657 mmHg 69%
    17:00 +4°C° 0.2 mm 1 mps 657 mmHg 72%
    18:00 +4°C° 0.2 mm 1 mps 657 mmHg 75%
    19:00 +4°C° 0.4 mm 1 mps 657 mmHg 77%
    20:00 +3°C° 0.4 mm 1 mps 657 mmHg 79%
    21:00 +3°C° 0.4 mm 1 mps 657 mmHg 82%
    22:00 +3°C° 0.6 mm 1 mps 657 mmHg 83%
    23:00 +3°C° 0.6 mm 1 mps 657 mmHg 83%

    Tomorrow, 18 December, Tuesday

    Time Temperature Precipitation Wind Pressure Humidity
    00:00 +3°C° 0.6 mm 1 mps 657 mmHg 84%
    01:00 +3°C° 0.3 mm 1 mps 657 mmHg 85%
    02:00 +3°C° 0.3 mm 1 mps 657 mmHg 85%
    03:00 +2°C° 0.3 mm 1 mps 657 mmHg 86%
    04:00 +2°C° 0.3 mm 1 mps 657 mmHg 86%
    05:00 +2°C° 0.3 mm 1 mps 657 mmHg 86%
    06:00 +2°C° 0.3 mm 1 mps 657 mmHg 86%
    07:00 +3°C° 0.3 mm 1 mps 657 mmHg 84%
    08:00 +3°C° 0.3 mm 1 mps 658 mmHg 83%
    09:00 +4°C° 0.3 mm 1 mps 658 mmHg 82%
    10:00 +4°C° 0.2 mm 1 mps 658 mmHg 79%
    11:00 +4°C° 0.2 mm 2 mps 658 mmHg 77%
    12:00 +4°C° 0.2 mm 2 mps 658 mmHg 75%
    13:00 +4°C° 0.1 mm 2 mps 658 mmHg 75%
    14:00 +4°C° 0.1 mm 2 mps 658 mmHg 74%
    15:00 +5°C° 0.1 mm 2 mps 658 mmHg 74%
    16:00 +4°C° 0.1 mm 2 mps 658 mmHg 75%
    17:00 +3°C° 0.1 mm 2 mps 659 mmHg 76%
    18:00 +3°C° 0.1 mm 1 mps 659 mmHg 77%
    19:00 +2°C° 0.1 mm 1 mps 659 mmHg 77%
    20:00 +2°C° 0.1 mm 1 mps 659 mmHg 77%
    21:00 +2°C° 0.1 mm 1 mps 659 mmHg 77%
    22:00 +2°C° 0.1 mm 1 mps 660 mmHg 78%
    23:00 +2°C° 0.1 mm 1 mps 660 mmHg 78%

    Day after tomorrow, 19 December, Wednesday

    Time Temperature Precipitation Wind Pressure Humidity
    00:00 +1°C° 0.1 mm 2 mps 660 mmHg 79%
    01:00 +1°C° 0 mm 2 mps 660 mmHg 79%
    02:00 -1°C° 0 mm 2 mps 660 mmHg 80%
    03:00 -1°C° 0 mm 2 mps 660 mmHg 80%
    04:00 -1°C° 0 mm 2 mps 660 mmHg 80%
    05:00 -1°C° 0 mm 2 mps 660 mmHg 80%
    06:00 -1°C° 0 mm 2 mps 660 mmHg 81%
    07:00 +1°C° 0 mm 2 mps 660 mmHg 80%
    08:00 +2°C° 0 mm 2 mps 660 mmHg 78%
    09:00 +2°C° 0 mm 2 mps 661 mmHg 77%
    10:00 +3°C° 0 mm 2 mps 660 mmHg 75%
    11:00 +4°C° 0 mm 2 mps 660 mmHg 74%
    12:00 +4°C° 0 mm 3 mps 660 mmHg 72%
    13:00 +4°C° 0 mm 3 mps 660 mmHg 72%
    14:00 +5°C° 0 mm 2 mps 659 mmHg 72%
    15:00 +5°C° 0 mm 2 mps 659 mmHg 71%
    16:00 +4°C° 0.1 mm 2 mps 659 mmHg 73%
    17:00 +4°C° 0.1 mm 2 mps 659 mmHg 75%
    18:00 +3°C° 0.1 mm 2 mps 659 mmHg 76%
    19:00 +2°C° 0 mm 2 mps 659 mmHg 76%
    20:00 +2°C° 0 mm 2 mps 659 mmHg 76%
    21:00 +2°C° 0 mm 2 mps 659 mmHg 76%
    22:00 +3°C° 0 mm 1 mps 659 mmHg 76%
    23:00 +3°C° 0 mm 1 mps 659 mmHg 76%

    20 December, Thursday

    Time Temperature Precipitation Wind Pressure Humidity
    00:00 +3°C° 0 mm 1 mps 659 mmHg 76%
    01:00 +3°C° 0.1 mm 1 mps 659 mmHg 77%
    02:00 +3°C° 0.1 mm 1 mps 658 mmHg 77%
    03:00 +3°C° 0.1 mm 1 mps 658 mmHg 78%
    04:00 +3°C° 0.1 mm 1 mps 658 mmHg 79%
    05:00 +3°C° 0.1 mm 1 mps 658 mmHg 80%
    06:00 +3°C° 0.1 mm 1 mps 658 mmHg 81%
    07:00 +3°C° 0.1 mm 1 mps 658 mmHg 80%
    08:00 +4°C° 0.1 mm 1 mps 658 mmHg 80%
    09:00 +4°C° 0.1 mm 1 mps 658 mmHg 79%
    10:00 +5°C° 0 mm 1 mps 658 mmHg 77%
    11:00 +5°C° 0 mm 1 mps 657 mmHg 76%
    12:00 +6°C° 0 mm 1 mps 657 mmHg 75%
    13:00 +6°C° 0.1 mm 1 mps 657 mmHg 75%
    14:00 +6°C° 0.1 mm 1 mps 656 mmHg 75%
    15:00 +6°C° 0.1 mm 1 mps 656 mmHg 75%
    16:00 +5°C° 0.1 mm 1 mps 656 mmHg 77%
    17:00 +4°C° 0.1 mm 1 mps 656 mmHg 79%
    18:00 +2°C° 0.1 mm 0 mps 656 mmHg 81%
    19:00 +2°C° 0.1 mm 0 mps 657 mmHg 81%
    20:00 +2°C° 0.1 mm 0 mps 657 mmHg 81%
    21:00 +2°C° 0.1 mm 0 mps 657 mmHg 81%
    22:00 +2°C° 0.2 mm 0 mps 657 mmHg 81%
    23:00 +2°C° 0.2 mm 0 mps 657 mmHg 82%

    21 December, Friday

    Time Temperature Precipitation Wind Pressure Humidity
    00:00 +2°C° 0.2 mm 0 mps 657 mmHg 82%
    01:00 +1°C° 0.2 mm 0 mps 657 mmHg 82%
    02:00 +1°C° 0.2 mm 0 mps 657 mmHg 82%
    03:00 +2°C° 0.2 mm 1 mps 658 mmHg 83%
    04:00 +2°C° 0.2 mm 1 mps 658 mmHg 83%
    05:00 +2°C° 0.2 mm 1 mps 658 mmHg 84%
    06:00 +2°C° 0.2 mm 1 mps 658 mmHg 85%
    07:00 +2°C° 0.2 mm 1 mps 658 mmHg 82%
    08:00 +3°C° 0.2 mm 1 mps 658 mmHg 80%
    09:00 +4°C° 0.2 mm 1 mps 659 mmHg 78%
    10:00 +4°C° 0.1 mm 1 mps 659 mmHg 76%
    11:00 +5°C° 0.1 mm 1 mps 659 mmHg 74%
    12:00 +6°C° 0.1 mm 1 mps 658 mmHg 73%
    13:00 +6°C° 0.1 mm 1 mps 658 mmHg 72%
    14:00 +6°C° 0.1 mm 1 mps 658 mmHg 72%
    15:00 +6°C° 0.1 mm 1 mps 658 mmHg 71%
    16:00 +5°C° 0.1 mm 1 mps 658 mmHg 74%
    17:00 +4°C° 0.1 mm 1 mps 658 mmHg 76%
    18:00 +3°C° 0.1 mm 1 mps 658 mmHg 78%
    19:00 +3°C° 0.1 mm 1 mps 658 mmHg 78%
    20:00 +2°C° 0.1 mm 1 mps 658 mmHg 78%
    21:00 +2°C° 0.1 mm 1 mps 658 mmHg 78%
    22:00 +2°C° 0.1 mm 1 mps 658 mmHg 79%
    23:00 +2°C° 0.1 mm 1 mps 658 mmHg 79%

    22 December, Saturday

    Time Temperature Precipitation Wind Pressure Humidity
    00:00 +2°C° 0.1 mm 1 mps 658 mmHg 79%
    01:00 +1°C° 0.1 mm 1 mps 658 mmHg 79%
    02:00 +1°C° 0.1 mm 1 mps 658 mmHg 79%
    03:00 +1°C° 0.1 mm 1 mps 658 mmHg 79%
    04:00 0°C° 0 mm 1 mps 658 mmHg 79%
    05:00 0°C° 0 mm 1 mps 658 mmHg 79%
    06:00 0°C° 0 mm 1 mps 657 mmHg 79%
    07:00 0°C° 0 mm 1 mps 657 mmHg 77%
    08:00 +1°C° 0 mm 1 mps 658 mmHg 76%
    09:00 +2°C° 0 mm 1 mps 658 mmHg 74%
    10:00 +1°C° 0 mm 2 mps 657 mmHg 71%
    11:00 +2°C° 0 mm 2 mps 657 mmHg 69%
    12:00 +3°C° 0 mm 2 mps 656 mmHg 67%
    13:00 +3°C° 0 mm 2 mps 656 mmHg 66%
    14:00 +3°C° 0 mm 2 mps 656 mmHg 66%
    15:00 +3°C° 0 mm 2 mps 655 mmHg 66%
    16:00 +2°C° 0.1 mm 2 mps 655 mmHg 68%
    17:00 +2°C° 0.1 mm 2 mps 655 mmHg 70%
    18:00 +1°C° 0.1 mm 2 mps 655 mmHg 72%
    19:00 +1°C° 0.2 mm 2 mps 655 mmHg 73%
    20:00 +1°C° 0.2 mm 2 mps 655 mmHg 74%
    21:00 +1°C° 0.2 mm 2 mps 655 mmHg 76%
    22:00 +1°C° 0.2 mm 2 mps 655 mmHg 77%
    23:00 +1°C° 0.2 mm 2 mps 655 mmHg 78%
    Show more